Weather History for Nome, AK

Change the Weather History Date:

Sunday, February 23, 2014

  Actual Average Record
Temperature  
Mean Temperature 28 °F -  
Max Temperature 31 °F 17 °F 36 °F (1940)
Min Temperature 25 °F - -37 °F (1971)
Degree Days  
Heating Degree Days 37 56  
Month to date heating degree days 1259 1331  
Since 1 July heating degree days 7968 9002  
Cooling Degree Days 0    
Month to date cooling degree days 0  
Year to date cooling degree days 0  
Moisture  
Dew Point 23 °F    
Average Humidity 0    
Maximum Humidity 0    
Minimum Humidity 0    
Precipitation  
Precipitation 0.02 in 0.04 in 0.54 in (1988)
Month to date precipitation 0.41 0.78  
Year to date precipitation 1.98 1.72  
Snow  
Snow 0.40 in 0.40 in 5.60 in (1996)
Month to date snowfall 7.5 10.0  
Since 1 July snowfall 52.7 54.5  
Snow Depth 9.00 in    
Sea Level Pressure  
Sea Level Pressure 29.76 in    
Wind  
Wind Speed 22 mph (East)    
Max Wind Speed 31 mph    
Max Gust Speed 37 mph    
Visibility 8 miles    
Events Rain , Snow    
T = Trace of Precipitation, MM = Missing Value Source: NWS Daily Summary

Daily Weather History Graph

Daily Weather History Graph

Search for Another Location

Airport:

Trip Planner

Search our weather history database for the weather conditions in past years. The results will help you decide how hot, cold, wet, or windy it might be!

Date:

Astronomy

Feb. 23, 2014 Rise Set
Actual Time 9:30 AM AKST 7:01 PM AKST
Civil Twilight 8:40 AM AKST 7:51 PM AKST
Nautical Twilight 7:44 AM AKST 8:47 PM AKST
Astronomical Twilight 6:48 AM AKST 9:43 PM AKST
Moon 5:59 AM AKST (2/23) 11:56 AM AKST (2/23)
Length of Visible Light 11h 10m
Length of Day
9h 30m
Last Quarter, 37% of the Moon is Illuminated
Feb 23
Last Quarter
Feb 28
New
Mar 8
First Quarter
Mar 16
Full
Mar 23
Last Quarter

Hourly Weather History & Observations

Time (AKST) Temp. Windchill Dew Point Humidity Pressure Visibility Wind Dir Wind Speed Gust Speed Precip Events Conditions
12:53 AM 30.0 °F 16.6 °F 26.1 °F 85% 29.77 in 9.0 mi East 23.0 mph - N/A   Overcast
1:53 AM 30.9 °F 18.1 °F 25.0 °F 79% 29.75 in 10.0 mi East 21.9 mph 28.8 mph N/A Snow Low Drifting Snow
2:53 AM 30.9 °F 17.2 °F 25.0 °F 79% 29.74 in 9.0 mi East 25.3 mph 32.2 mph N/A Snow Low Drifting Snow
3:53 AM 30.0 °F 16.3 °F 23.0 °F 75% 29.72 in 10.0 mi East 24.2 mph 32.2 mph 0.00 in Snow Light Snow
4:53 AM 30.0 °F 15.7 °F 23.0 °F 75% 29.71 in 8.0 mi East 26.5 mph - 0.00 in Snow Light Snow
5:53 AM 30.0 °F 15.7 °F 24.1 °F 79% 29.72 in 9.0 mi East 26.5 mph - 0.00 in Snow Light Snow
6:19 AM 30.2 °F 15.9 °F 23.0 °F 75% 29.71 in 9.0 mi East 26.5 mph - 0.00 in Rain , Snow Light Freezing Rain
6:53 AM 28.9 °F 15.1 °F 23.0 °F 78% 29.73 in 10.0 mi East 23.0 mph 33.4 mph 0.00 in Rain , Snow Light Freezing Rain
7:53 AM 28.9 °F 15.1 °F 23.0 °F 78% 29.72 in 9.0 mi East 23.0 mph - 0.00 in   Overcast
8:53 AM 28.9 °F 15.4 °F 23.0 °F 78% 29.72 in 10.0 mi East 21.9 mph 28.8 mph N/A   Overcast
9:53 AM 30.0 °F 16.6 °F 23.0 °F 75% 29.72 in 10.0 mi East 23.0 mph - N/A   Overcast
10:53 AM 30.0 °F 16.0 °F 23.0 °F 75% 29.73 in 10.0 mi East 25.3 mph 34.5 mph N/A   Overcast
11:53 AM 30.0 °F 15.7 °F 23.0 °F 75% 29.73 in 10.0 mi East 26.5 mph 32.2 mph N/A   Overcast
12:53 PM 28.9 °F 13.7 °F 23.0 °F 78% 29.73 in 10.0 mi East 28.8 mph 35.7 mph N/A   Overcast
1:53 PM 28.9 °F 15.1 °F 23.0 °F 78% 29.75 in 10.0 mi East 23.0 mph 31.1 mph N/A   Overcast
2:53 PM 28.9 °F 15.8 °F 23.0 °F 78% 29.77 in 10.0 mi East 20.7 mph - N/A   Overcast
3:53 PM 28.9 °F 15.4 °F 21.9 °F 75% 29.77 in 10.0 mi East 21.9 mph 29.9 mph N/A   Overcast
4:53 PM 28.0 °F 14.6 °F 21.9 °F 78% 29.78 in 10.0 mi East 20.7 mph - N/A   Overcast
5:53 PM 27.0 °F 14.7 °F 21.0 °F 78% 29.79 in 10.0 mi East 16.1 mph - N/A   Overcast
6:53 PM 26.1 °F 14.0 °F 21.9 °F 84% 29.80 in 7.0 mi East 15.0 mph - 0.00 in   Overcast
7:53 PM 26.1 °F 14.0 °F 23.0 °F 88% 29.81 in 3.0 mi East 15.0 mph - 0.00 in Snow Light Snow
8:20 PM 26.6 °F 15.7 °F 24.8 °F 93% 29.81 in 2.5 mi East 12.7 mph - 0.01 in Snow Light Snow
8:53 PM 25.0 °F 12.6 °F 24.1 °F 96% 29.81 in 4.0 mi East 15.0 mph - 0.02 in Snow Light Snow
9:53 PM 25.0 °F 10.9 °F 23.0 °F 92% 29.81 in 6.0 mi East 19.6 mph - 0.00 in Snow Light Snow
10:53 PM 25.0 °F 10.9 °F 21.9 °F 88% 29.82 in 5.0 mi East 19.6 mph - 0.00 in Snow Light Snow
11:03 PM 24.8 °F 10.7 °F 21.2 °F 86% 29.82 in 5.0 mi East 19.6 mph - 0.00 in Snow Light Snow
11:53 PM 26.1 °F 12.7 °F 21.0 °F 81% 29.83 in 7.0 mi East 18.4 mph - 0.00 in Snow Light Snow